Location: Poughquag
(41.6090°N, 73.6820°W)
Time: 12:45:34
(UTC-04:00)

Tiros 1 - Pass Details

Date: 31 May 2020
Orbit: 630 x 664 km, 48.4° (Epoch: 06 July)

Event Time Altitude Azimuth Distance (km) Brightness Sun altitude
Rises 17:02:35 0° 294° (WNW) 2,953 11.4 34.7°
Reaches altitude 10° 17:05:02 10° 301° (WNW) 2,036 10.7 34.3°
Maximum altitude 17:09:29 42° 13° (NNE) 914 8.2 33.4°
Drops below altitude 10° 17:13:54 10° 85° (E) 2,014 9.3 32.6°
Sets 17:16:19 0° 92° (E) 2,917 10.0 32.1°
